SCP
0 0 0 0 0 0 0 0 0 0 0 0 0 0 0 0 0 0 1 1 1 1 1 1 1 1 1 1 1 1 1 1 1 1 0 0 0 0 0 0 0 0 0 0
0 0 0 0 0 0 0 0 0 0 0 0 0 0 0 0 0 0 0 1 1 1 1 1 1 1 1 1 1 1 1 1 1 1 1 0 0 0 0 0 1 1 1 1
0 0 0 0 0 0 0 0 0 0 0 0 0 0 0 0 0 0 0 1 1 1 1 2 2 2 2 2 1 1 1 1 1 1 1 0 0 0 0 1 1 1 1 1
0 0 0 0 0 0 0 0 0 0 0 0 0 0 0 0 0 0 0 1 1 1 1 2 2 2 2 1 1 1 1 1 1 1 1 1 1 1 1 1 1 1 1 1
0 0 0 0 0 0 0 0 0 0 0 0 0 0 0 0 0 0 1 1 1 1 1 2 2 2 1 1 1 2 2 2 1 1 1 1 1 1 1 1 1 1 1 1
0 0 0 0 0 0 0 0 0 0 0 0 0 0 0 0 0 0 1 1 1 1 1 1 2 2 2 1 1 2 2 2 2 1 1 1 1 1 1 1 1 1 1 1
0 0 0 0 0 0 0 0 0 0 0 0 0 0 0 0 0 1 1 1 1 1 1 1 1 2 2 2 2 2 2 2 2 2 1 1 1 1 1 1 1 1 1 1
0 0 0 0 0 0 0 0 0 0 0 0 0 0 0 0 0 1 1 1 1 1 1 1 1 1 2 2 2 2 3 3 2 2 2 1 1 1 1 1 1 1 1 1
0 0 0 0 0 0 0 0 0 0 0 0 0 0 0 0 1 1 0 0 0 0 1 1 1 1 1 2 2 2 3 3 2 2 2 2 1 1 1 1 1 1 1 1
0 0 0 0 0 0 0 0 0 0 0 0 0 0 0 0 0 0 0 0 0 0 1 1 1 1 2 2 2 2 2 2 2 2 2 2 2 1 1 1 1 1 1 1
0 0 0 0 0 0 0 0 0 0 0 0 0 0 0 0 0 0 0 0 1 1 1 1 1 2 2 2 2 2 2 2 2 2 2 2 2 1 1 1 1 1 1 1
0 0 0 0 0 0 0 0 0 0 0 0 0 0 0 0 0 1 1 1 1 1 1 1 1 2 2 2 2 2 2 2 2 2 2 2 2 1 1 1 1 1 1 1
0 0 0 0 0 0 0 0 0 0 0 0 0 0 0 0 1 1 1 1 1 1 1 1 2 2 2 2 2 2 2 2 2 2 2 2 2 1 1 1 1 1 1 1
0 0 0 0 0 0 0 0 0 0 0 0 0 0 0 1 1 1 1 1 1 1 1 1 2 2 2 2 2 2 2 2 2 2 2 2 2 1 1 1 1 1 1 1
0 0 0 0 0 0 0 0 0 0 0 0 0 0 0 1 1 1 1 1 1 1 1 2 2 2 2 2 2 2 2 2 2 2 2 2 2 1 1 1 1 1 1 1
0 0 0 0 0 0 0 0 0 0 0 0 0 0 1 1 1 1 1 1 1 1 1 2 2 2 2 2 2 2 2 2 2 2 2 2 2 1 1 1 1 1 1 1
0 0 0 0 0 0 0 0 0 0 0 0 0 0 1 1 1 1 1 1 1 1 1 2 2 2 2 2 2 2 2 2 2 2 2 2 2 2 2 1 1 1 1 1
0 0 0 0 0 0 0 0 0 0 0 0 0 1 1 1 1 1 1 1 1 1 1 2 2 2 2 2 2 2 2 2 2 2 2 2 2 2 2 2 1 1 1 1
0 0 0 0 0 0 0 0 0 0 0 0 0 1 1 1 1 1 1 1 2 2 2 2 2 2 2 2 2 2 2 2 2 2 2 2 2 2 2 1 1 1 1 1
0 0 0 0 0 0 0 0 0 0 0 0 0 1 1 1 1 1 2 2 2 2 2 2 2 2 3 3 3 3 2 2 2 2 2 2 2 1 1 1 1 1 1 1
0 0 0 0 0 0 0 0 0 0 1 1 1 1 1 1 1 2 2 2 2 2 2 2 2 3 3 3 3 3 2 2 2 2 2 2 1 1 1 1 1 1 1 1
0 0 0 0 0 0 1 1 1 1 1 1 1 1 1 1 2 2 2 2 2 2 3 3 3 3 3 3 3 3 3 2 2 2 2 1 1 1 1 1 1 1 1 1
0 0 0 0 1 1 1 1 2 2 2 1 1 1 1 2 2 2 2 2 3 3 3 3 3 3 3 3 3 3 3 3 2 2 2 1 1 1 1 1 1 1 1 1
0 0 1 1 1 1 1 1 1 1 1 1 1 1 1 2 2 2 2 3 3 3 3 3 3 3 3 3 3 3 3 3 2 2 1 1 1 1 0 0 0 0 0 0
0 0 1 1 1 1 1 1 1 1 1 1 1 1 1 1 2 2 2 3 3 3 3 3 3 3 3 3 3 3 3 2 2 1 1 1 1 0 0 0 0 0 0 0
0 1 1 1 1 1 1 1 1 1 1 1 1 1 1 1 2 2 2 2 3 3 3 3 3 3 3 3 3 3 2 2 2 1 1 1 0 0 0 0 0 0 0 0
Wind_Speed
11 12 12 11 10 8 6 5 5 5 6 4 7 9 11 11 10 12 13 14 13 12 13 12 12 12 11 9 8 7 6 6 4 3 4 3 3 3 2 3 4 4 4 3
12 15 13 9 7 8 8 7 5 4 6 5 4 7 10 10 10 11 12 13 14 14 14 13 12 12 11 10 9 8 7 7 6 4 3 3 3 3 3 2 3 4 4 4
16 10 10 10 10 9 10 9 7 5 7 8 6 6 9 10 10 10 11 12 14 15 15 14 13 12 12 11 11 9 7 7 6 5 3 3 2 2 2 2 3 4 4 4
15 12 9 11 11 11 9 8 7 7 7 7 8 5 7 9 10 11 10 11 12 14 15 15 14 12 12 12 11 8 8 7 6 5 4 4 4 3 3 2 2 3 3 3
13 12 11 12 11 10 8 5 8 9 9 9 7 5 4 8 8 10 11 11 11 13 15 15 15 13 12 12 11 9 8 7 6 5 5 4 3 3 2 2 3 3 3 3
14 11 11 12 10 9 7 8 9 10 10 10 8 6 4 5 7 8 10 11 11 12 13 14 14 13 12 12 11 10 9 7 7 6 5 4 4 2 2 2 2 2 2 2
15 14 12 11 12 11 10 9 7 9 9 8 8 7 4 5 5 5 7 10 11 10 11 11 12 13 12 12 11 10 10 8 7 6 5 4 3 3 2 2 2 2 2 2
16 15 15 13 13 11 13 14 10 7 7 7 9 6 5 6 6 6 5 6 8 10 11 11 13 13 12 12 11 10 10 8 7 7 5 4 3 3 2 2 2 1 1 1
13 15 16 14 13 14 13 14 14 11 10 8 6 7 7 7 7 7 6 5 6 8 10 10 11 13 12 12 11 10 10 8 8 6 5 4 3 2 2 1 1 1 1 1
11 10 14 14 13 15 14 13 10 9 7 9 7 8 7 11 9 7 6 5 5 8 9 9 9 10 10 9 8 8 9 8 7 6 5 5 4 3 1 1 1 0 1 1
15 10 12 14 15 16 15 15 11 8 8 9 6 2 4 9 9 8 7 6 6 6 7 8 8 9 10 9 9 8 7 8 7 6 5 3 3 3 2 1 1 1 1 1
15 10 11 15 14 14 15 15 13 9 7 7 7 2 4 7 8 8 7 7 6 6 6 7 8 8 8 9 8 8 7 7 6 6 5 3 3 3 2 2 1 2 1 1
11 9 10 13 14 15 15 15 14 11 8 8 9 4 5 6 6 8 8 7 6 6 7 8 8 7 7 8 7 7 6 6 6 6 5 4 3 3 2 2 2 1 2 1
9 10 12 13 12 15 16 16 15 14 10 10 10 7 7 7 8 8 8 8 8 7 7 8 8 8 7 7 7 7 6 6 6 6 5 5 3 3 2 2 2 2 2 2
9 12 14 15 12 14 16 17 17 16 14 12 10 10 9 8 8 8 9 9 8 7 8 9 9 8 8 7 6 6 6 6 6 6 5 5 4 3 3 3 3 3 3 3
9 9 13 15 15 13 13 16 17 17 15 14 12 7 6 8 8 8 9 9 8 8 8 9 9 9 8 8 7 7 6 6 6 6 5 5 5 4 4 4 4 4 4 4
11 8 10 13 15 14 15 14 15 15 14 13 12 6 5 7 7 8 8 9 8 8 8 8 9 8 8 8 7 7 7 6 6 6 5 5 5 5 4 4 5 5 5 5
9 7 7 11 12 16 11 11 13 13 12 11 7 5 5 6 6 7 8 8 8 8 8 8 8 9 8 8 8 8 7 7 6 6 5 5 5 5 5 5 5 4 4 4
9 8 9 10 13 13 11 10 11 12 10 9 6 5 5 5 5 5 6 8 8 7 7 7 7 9 9 9 8 8 7 7 7 6 5 5 5 5 5 5 4 4 4 5
11 8 10 10 12 12 10 9 8 8 9 7 6 5 6 6 5 4 5 6 8 8 7 7 7 9 9 8 8 8 8 7 6 6 6 6 5 5 5 5 4 4 4 5
14 12 14 13 11 7 4 6 9 11 5 4 6 6 6 4 2 5 7 7 7 8 8 7 7 7 7 8 8 7 7 7 7 7 6 6 6 5 6 5 4 4 4 5
12 12 13 12 12 7 3 5 5 1 3 3 3 4 5 5 7 8 7 7 8 8 8 8 7 7 7 7 7 7 7 7 8 8 7 7 6 5 5 4 3 4 5 5
11 8 7 5 3 3 5 6 5 4 5 4 3 4 6 6 6 7 6 6 7 7 7 7 7 7 7 7 7 8 7 8 8 8 7 7 6 5 5 4 4 3 3 4
8 6 6 5 5 3 4 6 5 3 3 4 3 3 4 6 7 6 5 5 6 6 6 6 7 7 7 7 7 7 8 9 9 8 7 6 6 6 5 3 3 3 2 2
5 5 5 4 5 4 3 3 4 3 3 3 3 2 3 4 6 6 5 5 5 5 5 5 5 6 7 7 7 8 9 9 9 8 7 7 6 6 5 4 4 3 4 2
2 2 4 3 3 3 4 3 3 3 2 2 3 3 4 4 5 5 5 5 5 5 5 5 5 6 7 8 8 8 8 8 8 7 6 6 6 5 5 6 6 9 7 8
Wind_Direction
217 230 230 227 231 254 259 246 198 162 151 203 171 159 157 162 164 158 162 161 164 164 162 159 160 157 154 151 153 163 166 158 164 174 181 195 191 204 204 193 176 182 195 194
219 228 235 240 245 249 253 250 230 184 156 217 207 174 160 163 170 164 163 165 166 164 163 162 163 161 159 158 160 166 173 169 180 185 189 201 201 218 205 190 168 193 196 199
227 222 222 232 238 239 244 245 243 216 180 202 210 210 175 169 171 163 166 170 168 167 167 166 167 167 167 167 169 176 178 173 187 183 193 211 193 237 212 180 185 203 202 207
232 231 221 223 229 236 238 245 253 249 236 223 207 214 188 180 176 170 172 171 170 167 168 168 171 173 173 171 172 171 170 173 181 184 200 208 204 218 216 189 186 195 199 211
224 222 220 225 222 232 243 252 255 254 257 259 224 226 202 181 187 179 175 172 174 169 169 171 174 174 175 175 173 170 166 172 177 188 201 211 221 221 211 185 180 186 196 210
237 219 223 226 222 226 237 244 248 252 254 250 241 233 201 184 179 179 174 172 174 174 171 170 172 169 175 175 174 172 169 174 176 187 198 206 225 230 243 194 175 194 201 204
226 224 217 223 220 211 220 229 226 223 229 237 236 234 177 171 161 153 162 167 174 173 167 167 168 168 173 175 174 172 168 175 178 185 197 200 216 224 243 230 211 216 206 204
208 216 208 212 222 214 211 229 236 237 232 222 219 215 172 149 128 120 125 141 155 164 165 168 171 170 177 177 173 170 166 170 176 184 193 197 200 217 227 225 234 219 232 214
210 212 203 205 217 231 214 227 244 251 262 257 218 185 175 155 150 152 153 152 155 156 158 164 170 167 176 175 171 172 163 164 172 180 182 187 191 204 217 190 217 260 277 253
246 219 198 195 212 229 237 230 238 250 262 263 237 208 184 166 166 165 156 157 155 152 155 153 154 156 163 163 158 159 155 159 164 171 180 178 177 185 193 151 159 31 29 17
241 235 209 194 205 216 220 230 236 248 255 262 265 269 137 151 156 158 155 139 130 135 141 138 139 143 144 142 144 143 146 150 157 165 166 168 163 161 163 165 146 134 108 84
227 232 223 205 205 225 227 230 228 234 245 265 270 228 117 128 141 144 137 125 118 122 122 121 122 130 135 137 142 145 148 150 151 148 145 147 137 142 150 144 124 115 113 98
215 238 225 210 203 210 231 229 234 234 238 246 253 203 156 144 143 138 131 124 117 118 121 116 115 121 125 131 134 135 137 139 140 140 139 133 127 121 127 135 128 114 107 93
226 233 241 227 208 200 216 228 228 231 231 234 236 203 188 168 148 139 135 135 135 133 129 121 118 120 119 122 127 132 135 136 137 136 137 130 125 119 125 123 115 106 100 91
228 228 242 259 256 224 211 218 224 229 235 241 238 215 187 168 149 148 145 144 139 131 131 127 127 127 126 129 130 130 130 130 131 131 130 131 128 117 109 106 106 104 96 90
220 243 237 247 254 246 228 219 220 225 229 239 249 243 170 159 143 149 148 149 145 144 146 137 135 133 138 143 141 135 132 133 133 134 134 133 131 124 114 110 106 98 91 81
203 231 238 239 239 247 235 225 224 225 227 233 240 210 162 148 154 152 151 156 154 150 144 142 142 142 143 144 139 138 137 134 134 133 133 133 133 128 123 118 107 98 91 88
207 219 237 241 234 237 237 227 230 232 233 232 235 179 171 168 158 152 158 154 152 152 150 147 147 144 145 144 141 140 141 140 139 136 132 128 125 120 115 111 105 103 101 95
208 211 234 239 232 232 229 228 225 225 230 230 221 185 166 159 159 156 162 147 141 147 144 145 147 144 143 143 143 142 143 143 141 138 133 126 122 122 121 117 113 109 107 101
204 204 233 237 239 230 221 214 225 225 227 218 206 177 168 184 197 173 141 128 137 137 140 142 143 138 139 142 144 145 146 142 140 135 130 125 122 124 121 117 114 113 112 110
198 200 222 237 237 240 232 199 204 220 208 193 192 176 176 189 176 124 124 129 131 132 137 137 135 134 139 142 146 149 146 144 138 130 123 122 121 120 118 116 116 124 125 117
200 201 212 231 233 224 198 202 205 124 75 101 133 156 152 129 123 122 123 128 134 138 139 138 137 137 140 145 150 149 146 138 132 129 127 125 125 127 123 123 125 136 135 129
207 212 204 219 219 45 57 78 77 73 87 91 120 133 138 138 136 129 126 132 137 137 139 141 142 143 148 151 154 151 139 135 136 134 131 130 128 118 121 126 127 130 140 137
198 205 206 177 169 141 93 98 89 84 98 91 87 110 141 144 143 136 134 131 134 139 142 142 147 153 150 150 151 144 139 140 140 139 138 135 131 129 124 122 123 118 120 138
201 201 191 175 153 146 136 118 115 107 98 98 93 116 115 134 144 139 131 129 135 139 142 143 146 150 148 147 144 142 143 145 145 144 144 141 136 129 113 93 61 75 60 64
267 204 204 184 151 167 140 124 132 134 129 117 114 120 129 127 132 138 132 129 136 140 142 144 148 151 145 144 141 141 145 149 150 151 154 153 148 144 142 130 100 57 73 77